Burlington, VT

12:38 AM EST on November 15, 2019 (GMT -0500)
Burlington International

Weather History for KBTV - September, 2019

Change the Weather History Date:

Tuesday, September 10, 2019

  Actual Average Record
Temperature  
Mean Temperature 61 °F 63 °F  
Max Temperature 74 °F 73 °F 93 °F (2002)
Min Temperature 47 °F 53 °F 33 °F (1913)
Degree Days  
Heating Degree Days 4 4  
Month to date heating degree days 21 29  
Since 1 July heating degree days 25 71  
Cooling Degree Days 0 2  
Month to date cooling degree days 5 25  
Year to date cooling degree days 585 473  
Growing Degree Days 10 (Base 50)    
Moisture  
Dew Point 53 °F    
Average Humidity 71    
Maximum Humidity 93    
Minimum Humidity 49    
Precipitation  
Precipitation 0.03 in 0.11 in 1.48 in (1976)
Month to date precipitation 2.20 1.10  
Year to date precipitation 28.49 25.17  
Snow  
Snow 0.00 in 0.00 in 0.00 in (2002)
Month to date snowfall 0.0 0.0  
Since 1 July snowfall 0.0 0.0  
Since 1 September snowfall 0.0 0.0  
Snow Depth 0.00 in    
Sea Level Pressure  
Sea Level Pressure 30.25 in    
Wind  
Wind Speed 9 mph (SSE)    
Max Wind Speed 20 mph    
Max Gust Speed 30 mph    
Visibility 10 miles    
Events Rain    
T = Trace of Precipitation, MM = Missing Value Source: NWS Daily Summary

Daily Weather History Graph

Daily Weather History Graph

Search for Another Location

Airport or City:

Astronomy

Sep. 10, 2019 Rise Set
Actual Time 6:25 AM EDT 7:13 PM EDT
Civil Twilight 5:55 AM EDT 7:42 PM EDT
Nautical Twilight 5:20 AM EDT 8:17 PM EDT
Astronomical Twilight 4:44 AM EDT 8:53 PM EDT
Moon 5:56 PM EDT (9/10) 2:38 AM EDT (9/10)
Length of Visible Light 13h 46m
Length of Day
12h 47m
Waxing Gibbous, 89% of the Moon is Illuminated
Sep 10
Waxing Gibbous
Sep 14
Full
Sep 21
Last Quarter
Sep 28
New
Oct 5
First Quarter

Hourly Weather History & Observations

Time (EDT) Temp. Dew Point Humidity Pressure Visibility Wind Dir Wind Speed Gust Speed Precip Events Conditions
12:54 AM 50.0 °F 46.9 °F 89% 30.34 in 10.0 mi ENE 4.6 mph - N/A   Clear
1:54 AM 50.0 °F 46.0 °F 86% 30.35 in 10.0 mi NE 4.6 mph - N/A   Clear
2:54 AM 48.9 °F 45.0 °F 86% 30.35 in 10.0 mi ENE 4.6 mph - N/A   Clear
3:54 AM 48.0 °F 45.0 °F 89% 30.36 in 10.0 mi ENE 3.5 mph - N/A   Clear
4:54 AM 48.0 °F 45.0 °F 89% 30.36 in 10.0 mi East 3.5 mph - N/A   Mostly Cloudy
5:54 AM 46.9 °F 44.1 °F 90% 30.36 in 10.0 mi East 3.5 mph - N/A   Scattered Clouds
6:54 AM 48.0 °F 45.0 °F 89% 30.38 in 10.0 mi Calm Calm - N/A   Scattered Clouds
7:54 AM 51.1 °F 46.0 °F 83% 30.37 in 10.0 mi East 3.5 mph - N/A   Scattered Clouds
8:54 AM 55.9 °F 48.9 °F 77% 30.36 in 10.0 mi SSE 3.5 mph - N/A   Mostly Cloudy
9:54 AM 61.0 °F 50.0 °F 67% 30.35 in 10.0 mi South 5.8 mph - N/A   Scattered Clouds
10:54 AM 64.0 °F 48.9 °F 58% 30.33 in 10.0 mi South 5.8 mph - N/A   Scattered Clouds
11:54 AM 69.1 °F 50.0 °F 51% 30.30 in 10.0 mi South 13.8 mph 19.6 mph N/A   Scattered Clouds
12:54 PM 72.0 °F 52.0 °F 49% 30.27 in 10.0 mi South 10.4 mph 19.6 mph N/A   Mostly Cloudy
1:54 PM 73.9 °F 55.0 °F 52% 30.25 in 10.0 mi South 16.1 mph - N/A   Mostly Cloudy
2:54 PM 73.0 °F 55.9 °F 55% 30.22 in 10.0 mi South 12.7 mph - N/A   Mostly Cloudy
3:54 PM 73.0 °F 57.0 °F 57% 30.19 in 10.0 mi South 9.2 mph - N/A   Mostly Cloudy
4:54 PM 73.0 °F 59.0 °F 61% 30.17 in 10.0 mi South 11.5 mph - N/A   Mostly Cloudy
5:54 PM 73.0 °F 59.0 °F 61% 30.15 in 10.0 mi SSE 9.2 mph - N/A   Mostly Cloudy
6:54 PM 73.0 °F 60.1 °F 64% 30.17 in 10.0 mi South 11.5 mph 19.6 mph N/A   Overcast
7:54 PM 71.1 °F 62.1 °F 73% 30.12 in 10.0 mi South 15.0 mph 25.3 mph 0.00 in Rain Light Rain
8:54 PM 71.1 °F 62.1 °F 73% 30.12 in 10.0 mi South 16.1 mph 21.9 mph 0.00 in   Mostly Cloudy
9:54 PM 70.0 °F 63.0 °F 78% 30.11 in 10.0 mi South 15.0 mph 29.9 mph 0.00 in Rain Light Rain
10:54 PM 68.0 °F 64.0 °F 87% 30.09 in 10.0 mi South 13.8 mph - 0.03 in   Overcast
11:54 PM 68.0 °F 64.0 °F 87% 30.08 in 10.0 mi South 15.0 mph 23.0 mph N/A   Mostly Cloudy